RH
19 19 20 20 20 20 20 19 18 16 15 15 15 16 18 18 18 16 14 12 11 11 10 10 10 10 9 9 9 9 8 7 7 7 8 8 8 8 7 8 7 8 8 8 8 8 8 8 9 8 9 9 11 15 13 37 79 82 80 90 77 54 43 39 48 61 78 96 99 97 68 27 17 14 12 15 12 12 10 11 13 14 15 14 15 14 15 16
17 18 18 19 20 20 21 20 19 19 17 16 14 14 15 16 18 18 18 15 13 11 11 10 10 10 10 10 9 9 9 8 7 7 8 7 8 8 8 8 7 8 7 8 8 8 9 8 10 8 8 10 10 15 13 34 81 96 90 84 69 56 46 38 46 53 71 97 101 102 74 31 23 18 15 19 15 14 10 10 11 12 15 14 16 14 14 16
16 16 16 17 17 18 19 19 19 19 19 18 16 15 14 14 15 16 18 18 16 13 12 11 11 11 10 10 10 9 9 8 8 8 8 7 8 9 8 8 7 8 7 8 8 8 9 8 9 8 8 9 9 14 13 30 79 104 97 86 71 57 44 37 40 44 61 87 92 98 74 35 33 25 18 23 19 18 12 9 10 10 13 13 15 15 15 16
17 16 16 16 16 17 17 17 17 18 18 19 18 17 15 14 14 14 15 16 18 16 13 12 11 11 10 10 10 9 9 9 9 8 8 7 8 8 8 9 7 8 8 8 8 8 8 7 8 7 8 8 9 13 12 26 66 99 101 84 70 60 48 37 36 38 48 68 82 97 82 47 42 34 23 25 23 21 15 10 10 9 11 12 14 15 15 16
18 19 19 19 20 19 18 17 17 17 17 18 18 18 17 16 15 14 14 14 15 16 15 13 12 12 11 11 10 10 9 9 9 8 8 8 7 8 9 9 8 8 8 7 8 8 7 7 8 8 9 8 9 12 13 20 45 88 104 79 66 67 55 42 43 48 53 71 81 93 97 69 51 43 30 28 27 24 19 13 11 11 9 10 12 14 15 15
20 21 22 22 22 21 20 20 19 18 17 17 17 18 18 17 16 15 14 14 14 14 15 14 13 12 11 11 10 10 10 9 10 9 8 8 7 8 8 9 8 8 8 8 7 8 8 7 8 9 8 8 9 10 13 17 32 81 104 74 64 76 69 53 49 55 69 87 83 77 94 90 74 63 41 33 32 27 24 17 14 14 10 10 11 13 15 15
22 23 23 23 22 21 20 20 21 21 20 19 18 17 18 18 17 16 15 13 13 13 13 14 14 13 12 11 11 10 10 9 9 9 9 9 8 8 8 8 8 8 8 7 7 7 8 7 8 9 8 9 9 9 13 15 28 76 106 76 63 83 83 66 51 52 73 96 92 73 76 93 97 81 52 40 40 32 28 23 17 17 14 11 10 11 13 13
24 23 23 22 22 22 22 22 22 21 21 20 19 18 17 17 17 16 16 14 13 13 12 12 13 13 12 11 11 11 10 10 9 9 9 9 8 8 8 8 8 8 8 7 7 7 8 7 9 9 9 9 9 10 11 13 23 63 103 88 74 91 93 81 67 58 73 90 97 90 80 90 101 91 66 48 47 40 32 28 22 20 19 15 10 10 12 13
24 23 23 24 25 26 26 25 23 22 21 20 19 18 17 16 16 16 16 15 13 12 12 12 12 12 13 12 11 11 11 11 10 9 9 9 9 8 8 8 8 8 8 7 7 7 8 8 8 9 9 9 9 9 10 13 18 46 93 100 88 98 97 93 87 74 80 85 89 101 98 97 101 99 82 59 52 45 37 35 29 24 23 20 15 10 10 12
23 23 25 27 28 28 27 26 24 22 20 19 18 17 17 16 16 15 14 15 14 13 12 11 11 11 12 13 11 10 11 11 10 9 9 9 9 9 8 8 8 8 8 7 7 7 7 8 8 9 9 9 9 9 10 12 15 39 88 104 95 102 98 91 87 75 81 85 82 95 101 100 101 100 91 72 61 50 41 40 35 30 27 26 22 13 10 11
23 25 27 28 29 28 27 26 24 23 21 19 17 16 16 16 15 15 15 14 13 13 12 11 11 10 10 12 11 10 10 11 11 10 9 9 10 9 8 8 8 8 8 7 7 7 8 9 8 9 10 9 9 9 10 12 13 38 88 106 94 97 95 87 77 58 68 83 77 87 98 99 101 101 94 82 72 57 46 46 43 35 31 31 28 19 12 11
24 25 27 27 27 26 25 25 24 23 21 19 17 16 15 15 15 15 15 14 13 13 12 12 11 10 10 10 11 11 10 11 11 10 9 9 9 9 8 8 8 7 8 7 7 8 9 10 8 9 10 9 10 9 10 12 11 31 83 107 92 88 92 94 77 49 59 72 63 80 103 101 101 103 97 89 82 66 53 52 50 42 36 35 33 28 19 13
24 26 26 26 25 25 24 23 23 21 20 19 17 16 15 15 14 14 15 15 14 13 12 12 12 11 10 9 10 11 11 10 10 10 9 9 9 9 9 8 8 7 7 7 7 9 9 10 9 8 10 10 10 10 9 13 12 29 82 105 93 91 97 103 86 52 53 61 52 65 92 100 101 102 98 96 92 77 65 62 57 49 43 39 38 37 28 19
25 26 26 25 24 24 24 23 22 21 19 18 16 15 14 14 14 13 14 14 14 14 13 12 12 12 11 9 9 11 11 9 9 10 9 9 9 9 9 8 8 7 7 8 8 10 10 10 10 8 10 11 10 11 11 14 11 31 84 104 93 97 101 103 95 67 50 56 55 51 71 94 99 101 101 101 99 86 77 73 65 58 50 43 44 45 39 30
27 27 25 24 25 25 24 23 22 21 19 17 16 14 14 13 13 13 13 13 14 14 13 12 12 12 12 10 9 9 10 10 9 9 10 10 9 9 9 8 8 7 7 8 8 10 10 9 10 9 10 11 11 11 11 15 15 35 85 104 94 99 102 99 102 89 67 62 59 52 75 97 95 100 103 101 103 93 85 80 70 66 61 54 50 50 50 42
28 26 25 25 26 26 25 24 23 21 19 17 15 14 13 13 12 13 12 13 13 13 14 13 12 12 12 12 10 9 9 10 9 9 10 10 10 9 9 9 8 8 7 8 9 10 10 9 10 9 9 11 10 12 12 17 29 47 82 103 98 100 103 99 101 100 92 80 60 57 89 104 94 98 102 101 105 98 94 88 73 68 70 67 59 56 58 53
28 25 26 28 28 27 26 25 24 21 18 16 15 13 13 11 11 11 12 13 13 13 14 14 12 11 12 12 11 10 9 10 10 9 9 10 11 10 9 9 8 9 8 8 9 10 10 9 10 9 9 10 10 13 12 18 41 56 75 99 101 101 103 100 100 100 102 86 55 57 91 102 96 99 100 101 105 101 100 95 80 70 67 70 67 61 61 62
25 25 29 29 29 29 28 26 24 21 18 16 14 12 10 8 8 9 10 11 13 14 14 14 13 11 12 12 12 11 9 10 10 9 10 9 11 10 9 9 8 9 8 8 9 9 10 8 10 11 8 10 10 13 12 18 51 67 74 96 103 104 103 99 101 100 100 82 51 55 82 95 99 100 99 101 104 104 106 99 84 74 67 69 74 68 62 66
25 27 30 30 31 30 29 27 24 21 18 16 12 9 7 6 7 7 7 9 11 13 14 14 14 13 12 12 13 13 11 10 10 10 10 9 10 10 10 9 9 10 9 9 9 8 10 8 10 12 9 11 9 13 12 14 53 76 76 93 103 106 105 99 100 101 95 71 47 56 71 81 95 101 99 100 103 103 106 101 86 82 77 72 77 73 64 66
27 29 31 32 33 31 30 27 24 21 18 14 10 8 7 7 7 7 6 8 9 12 14 15 15 14 13 12 13 13 12 10 10 11 10 9 10 10 10 10 9 10 10 10 9 8 10 9 10 12 11 12 8 12 12 13 54 82 77 91 104 103 104 100 98 103 96 64 50 72 75 68 82 98 101 100 100 101 105 99 85 89 90 80 80 74 66 66
28 30 34 35 34 33 30 28 25 22 16 11 9 9 10 9 8 8 7 7 8 10 13 15 15 15 13 13 13 14 13 11 10 11 11 10 10 10 11 10 9 10 10 10 9 8 9 10 11 11 11 11 8 11 11 13 49 77 72 86 105 102 102 104 98 101 102 81 74 92 85 64 68 85 97 102 100 99 105 98 84 90 97 90 87 78 70 67
29 32 36 36 35 33 31 29 26 20 14 11 11 12 13 13 12 11 9 8 8 8 11 14 16 16 14 14 14 14 14 12 11 10 12 11 10 10 10 12 11 10 10 10 9 8 9 11 11 10 10 10 9 10 12 12 34 62 61 70 96 100 97 103 99 95 101 101 93 89 81 65 64 73 82 96 101 101 103 93 81 92 100 97 94 89 79 72
31 35 37 37 35 34 32 30 25 18 14 13 14 16 16 17 15 14 13 11 9 9 10 12 16 17 16 15 14 14 14 13 11 10 11 12 10 10 10 12 12 11 10 10 10 9 9 11 10 10 9 10 10 9 13 11 18 45 52 56 82 96 96 101 101 95 99 106 95 78 68 59 64 77 78 87 99 103 102 86 79 95 104 94 89 88 84 79
33 37 38 37 36 34 33 30 23 16 15 17 18 19 19 20 18 17 16 14 12 10 9 11 14 17 17 16 15 15 15 14 12 10 11 12 11 11 10 11 12 12 11 10 10 10 9 9 9 10 9 9 11 8 12 13 11 25 38 52 79 93 95 102 102 100 99 102 95 76 63 55 63 82 87 90 96 102 103 85 77 93 104 94 80 80 81 80
36 38 39 39 37 36 35 29 20 16 18 21 23 22 21 22 21 20 18 17 15 12 11 10 12 16 17 18 17 16 16 15 14 11 11 12 12 12 10 11 12 12 12 10 10 10 9 9 8 9 9 8 11 10 10 13 11 15 24 46 78 89 90 100 101 100 100 101 97 81 69 61 62 75 89 95 92 91 99 91 78 83 99 102 89 83 83 82
37 39 40 40 38 38 34 26 19 18 21 24 29 28 24 24 24 22 20 19 18 15 13 11 11 15 17 19 18 17 17 16 15 12 11 12 13 13 11 11 12 13 13 11 10 10 8 9 8 8 10 8 10 12 10 12 12 14 18 36 68 80 83 99 101 98 102 100 97 92 86 78 68 70 86 100 90 79 93 101 85 74 89 105 99 90 87 86
39 41 42 41 40 38 32 23 19 21 24 28 35 35 30 27 27 25 22 21 20 18 16 14 12 13 16 19 19 18 18 17 16 14 11 12 14 14 13 12 12 12 14 12 10 10 8 9 9 8 9 9 9 11 11 12 12 14 17 27 54 68 78 101 103 96 103 101 97 100 99 95 85 74 81 100 97 85 96 102 80 69 87 105 102 92 88 91
42 43 43 42 41 37 28 22 21 24 27 31 39 43 40 33 30 29 26 22 22 20 18 16 14 13 15 18 20 20 19 19 18 15 12 12 14 15 15 14 13 12 13 13 10 10 9 8 9 8 8 9 9 11 12 12 11 14 16 22 43 61 76 100 106 96 100 102 99 101 99 100 97 87 85 93 94 92 101 93 69 72 95 104 103 95 88 91
45 44 43 43 41 34 25 22 24 27 29 35 42 48 50 44 35 32 31 26 24 23 21 18 16 15 15 17 20 21 21 21 19 17 13 12 14 16 17 15 14 13 12 14 11 9 9 8 9 8 8 9 9 11 12 12 11 12 16 20 38 66 83 97 105 101 99 101 101 101 100 98 98 101 96 88 87 95 101 91 75 86 99 100 104 100 88 88
46 45 44 44 39 30 24 24 28 29 31 40 48 50 53 51 42 35 34 32 28 25 23 21 18 17 16 17 20 22 23 23 22 19 15 13 14 16 17 16 15 14 13 13 12 9 9 9 9 8 8 9 9 10 11 12 11 10 15 18 32 70 94 95 99 104 101 100 101 100 101 99 101 105 96 88 94 98 98 98 95 99 101 100 104 100 89 85
48 46 45 44 36 27 24 26 30 32 34 44 55 58 57 56 50 42 39 37 32 29 25 22 20 20 19 18 21 23 25 25 24 22 17 14 14 15 17 17 17 16 14 13 13 11 9 9 10 10 9 9 9 10 10 12 12 9 13 17 22 58 98 97 91 101 102 100 101 100 100 102 104 99 86 87 99 96 92 100 103 97 97 100 102 100 95 87
49 47 46 42 32 25 25 28 31 33 37 47 59 66 67 66 60 51 48 43 36 33 29 25 22 20 21 21 22 26 27 27 26 23 19 15 15 17 18 18 17 18 16 14 13 12 12 11 10 10 9 9 8 9 10 11 13 10 10 17 16 37 88 104 90 94 101 100 101 100 100 100 101 96 88 93 103 99 94 99 95 85 90 100 100 100 102 94
51 48 46 40 29 26 27 29 33 35 39 49 60 69 74 78 72 62 57 51 42 38 33 29 25 21 21 22 24 28 30 30 27 25 21 16 15 17 19 19 18 18 16 13 13 13 13 13 12 11 9 9 8 8 10 9 12 12 9 16 15 22 71 106 96 88 95 100 101 100 100 100 99 100 97 98 102 102 100 97 82 67 78 99 102 100 102 97
52 49 46 38 27 27 29 30 34 36 41 52 63 70 76 84 82 72 68 63 51 44 37 32 29 24 23 22 24 28 31 32 29 26 23 18 17 17 18 20 19 18 17 14 13 12 14 15 13 12 10 10 9 7 10 9 10 14 10 13 16 16 50 97 105 89 83 93 102 100 99 100 100 100 99 99 100 101 103 98 83 68 74 93 101 101 101 98
53 50 45 35 27 29 31 31 34 37 43 56 65 72 78 86 87 80 78 75 62 51 45 38 32 27 25 24 24 27 30 33 31 28 25 20 18 17 17 20 19 19 18 15 14 13 14 16 14 13 10 10 10 7 9 9 9 13 11 11 15 15 31 73 105 97 73 80 100 102 99 101 101 98 97 100 101 100 101 98 95 93 93 98 101 102 103 101
54 51 44 33 27 31 32 32 35 37 45 59 68 74 80 87 88 83 84 85 74 61 52 45 37 30 26 25 26 27 29 32 32 31 28 23 21 19 18 19 19 19 18 16 16 15 14 15 14 14 11 10 11 9 8 9 9 11 12 11 13 16 21 47 92 105 78 70 91 102 100 100 102 95 91 97 102 101 100 98 99 102 103 102 99 101 102 95
54 51 43 31 28 32 33 33 35 37 45 59 69 76 83 87 87 85 86 86 83 73 60 52 45 36 29 26 26 28 29 31 32 32 30 25 23 21 19 20 19 19 19 17 17 17 16 16 14 14 13 11 11 9 8 9 8 10 12 12 11 14 18 31 69 102 92 72 79 97 102 100 102 97 90 95 100 100 100 100 100 100 101 96 87 94 97 84
55 51 42 31 28 33 35 34 36 38 44 58 68 77 85 87 83 83 84 82 82 79 69 60 52 44 36 28 25 27 29 31 32 32 31 28 25 23 21 21 20 19 19 18 18 19 19 17 14 15 14 12 11 9 9 8 8 9 10 13 12 12 17 22 44 84 102 87 78 89 99 100 101 100 97 99 101 101 100 101 101 98 100 96 85 92 95 77
55 51 41 30 28 34 35 35 36 38 42 54 67 75 83 86 81 79 80 79 79 77 72 66 59 52 43 34 27 25 28 31 32 32 31 29 27 26 24 22 20 20 20 19 18 19 20 18 15 15 15 14 11 9 10 9 9 9 9 12 12 11 14 17 29 60 94 101 89 86 95 100 101 100 100 102 104 105 99 99 103 98 99 101 91 89 91 78
56 51 40 29 28 33 36 35 36 38 41 52 66 74 79 82 80 77 77 78 78 76 71 66 62 57 50 42 33 27 26 29 32 33 32 30 28 27 26 23 21 20 20 20 20 20 21 19 16 15 14 14 12 10 10 10 9 9 9 11 12 11 12 14 20 39 71 98 101 93 92 98 101 100 100 102 104 106 102 99 101 100 101 103 91 80 84 84
57 50 38 29 29 33 36 36 36 38 40 48 62 73 77 77 76 76 76 75 75 74 70 63 59 56 54 49 41 33 27 26 30 33 33 31 29 27 26 24 22 21 20 20 20 21 22 21 19 16 14 14 13 12 11 10 10 9 9 10 11 12 13 12 16 23 42 72 97 102 94 91 97 100 100 103 101 99 101 101 100 100 102 101 90 81 82 88
57 50 37 29 29 33 37 38 37 38 40 45 57 69 75 75 72 72 74 74 72 70 66 59 54 51 50 50 47 41 33 27 27 30 33 33 30 28 26 24 22 20 21 21 20 21 22 21 21 18 15 14 14 13 12 10 10 10 9 9 10 12 13 12 14 17 22 39 70 98 101 91 94 101 100 103 103 96 94 100 102 100 101 99 94 90 90 95
58 49 37 30 30 33 37 39 38 38 39 43 53 66 74 75 72 70 70 71 69 65 61 55 50 47 44 45 46 44 39 33 28 27 30 33 32 29 27 24 22 20 20 21 21 21 21 22 22 20 17 14 13 14 13 11 11 10 9 9 9 10 12 12 12 14 18 21 37 72 99 100 98 103 101 98 102 102 97 99 102 100 100 101 98 97 96 98
58 48 36 30 30 33 37 41 40 39 39 42 50 63 73 76 74 69 67 67 65 62 57 52 47 44 41 40 41 42 42 39 33 28 27 30 32 31 29 26 23 21 20 21 21 21 21 21 22 22 19 15 13 13 13 12 11 10 10 9 9 9 11 13 12 11 15 18 20 40 78 102 103 103 103 96 94 103 103 99 100 101 100 101 100 101 101 99
57 47 35 30 31 33 36 41 43 41 39 40 46 58 70 77 75 70 66 65 63 60 56 51 46 42 39 37 36 37 39 39 36 31 27 27 29 31 30 28 25 22 21 21 21 21 21 21 21 21 21 18 14 13 13 13 12 11 10 9 9 10 10 11 14 12 12 16 18 21 46 85 102 101 103 100 91 96 104 99 95 98 101 100 99 101 101 97
57 45 34 30 31 33 36 41 45 44 40 39 44 53 67 77 77 73 68 64 61 59 55 50 45 40 36 34 33 32 33 35 37 34 29 27 27 29 30 29 27 25 23 21 21 21 21 21 21 20 21 19 16 14 13 14 14 13 12 10 9 10 10 10 11 13 12 12 16 17 24 56 90 99 102 104 94 89 100 103 94 91 98 101 100 101 101 96
56 44 33 31 32 34 36 40 45 47 43 40 42 50 64 74 77 75 70 64 60 58 54 49 44 39 34 31 30 29 29 30 32 33 32 28 26 26 28 29 29 27 25 23 22 21 21 20 20 20 20 20 18 15 13 13 14 14 13 12 11 10 10 11 10 12 14 12 13 17 17 31 64 89 98 103 98 87 91 103 100 92 95 101 101 101 102 100
56 43 33 31 32 34 37 40 44 48 45 42 43 51 62 70 73 73 70 65 60 57 53 48 43 37 32 28 27 27 26 27 28 30 31 29 27 26 26 28 29 28 27 25 24 23 21 20 19 19 20 20 19 17 14 13 14 15 14 13 12 11 10 11 11 10 13 13 12 14 15 18 38 65 83 95 101 94 89 98 104 99 97 100 103 102 100 103
54 42 32 31 33 34 37 40 44 48 48 44 45 53 62 66 68 69 68 65 61 57 52 48 42 37 31 27 26 25 24 25 25 26 29 29 29 28 26 27 28 29 29 28 26 25 22 20 19 18 19 20 20 18 16 14 13 14 15 14 12 12 11 10 11 10 10 13 13 13 15 14 19 35 53 70 85 93 95 99 103 102 101 100 101 103 99 100
53 41 32 31 33 34 38 41 43 47 49 46 45 52 60 64 66 66 65 64 62 58 53 48 43 37 31 27 26 24 23 24 24 24 26 28 30 30 28 27 27 28 30 30 28 27 25 22 19 18 18 19 20 20 18 16 15 13 14 16 14 13 12 10 11 11 10 11 13 13 14 16 15 17 26 38 51 66 83 98 104 104 103 100 100 102 100 100
52 40 32 31 33 34 38 42 43 45 48 47 46 51 60 66 67 66 65 64 62 59 55 50 44 38 32 29 27 25 23 23 23 24 25 26 29 32 32 30 28 28 30 31 31 30 29 25 21 19 19 19 19 21 20 18 16 14 14 15 16 15 13 11 10 11 11 10 11 12 13 15 16 14 16 21 26 34 50 72 91 100 102 101 101 101 100 100
50 39 31 31 34 35 38 43 45 45 48 48 45 50 63 72 71 67 65 64 63 61 58 52 46 40 34 31 30 27 23 21 22 24 25 25 26 30 34 34 33 31 30 31 32 33 32 29 26 24 22 20 20 21 21 20 18 17 15 14 15 16 14 13 11 11 11 10 10 12 13 14 15 15 15 16 18 21 28 40 59 79 92 99 101 101 101 100
Wind_Speed
26 27 28 28 29 30 30 32 33 33 32 31 30 29 29 28 28 28 28 28 27 27 28 29 31 33 35 38 40 41 42 42 42 40 39 41 44 45 44 45 44 44 43 42 40 39 38 38 38 37 36 34 32 33 31 29 27 23 22 18 19 19 15 15 13 13 10 8 7 5 6 11 17 18 19 21 23 22 20 20 18 17 16 18 19 20 21 23
28 29 29 30 30 30 31 31 33 34 35 35 34 32 31 31 30 30 30 30 30 29 29 30 31 33 35 37 40 41 42 43 43 41 41 44 44 44 45 46 45 45 45 43 42 41 40 40 40 39 38 36 34 34 33 31 28 24 23 20 19 18 16 15 17 18 12 8 5 2 5 12 16 16 17 19 21 22 21 21 21 19 17 18 18 19 20 21
31 32 32 32 32 32 32 33 33 34 36 37 37 36 35 34 33 33 33 33 32 32 31 31 31 33 35 37 39 41 43 44 43 42 44 44 43 45 47 47 46 46 46 44 44 43 42 42 42 40 39 38 36 36 35 32 31 27 24 23 21 18 17 17 20 20 12 8 6 3 8 13 14 13 15 18 19 20 21 22 23 21 19 19 18 18 19 20
34 35 36 36 36 36 36 36 36 35 36 37 39 39 39 38 37 36 36 36 35 35 34 33 32 33 35 37 39 41 44 44 44 45 46 45 45 46 47 47 47 47 47 46 46 45 43 43 42 41 40 39 37 37 37 34 33 29 26 25 22 18 18 19 21 20 14 9 7 6 9 11 12 10 13 16 16 17 19 21 23 23 21 21 19 17 18 19
36 37 39 39 40 40 41 41 40 39 38 38 38 40 41 42 41 40 40 39 39 38 37 36 35 35 36 38 40 42 44 44 44 46 47 46 47 47 47 48 48 48 48 47 47 46 44 43 42 42 41 40 39 39 38 37 35 30 28 27 23 20 20 21 21 20 16 11 8 8 8 9 10 9 12 14 13 14 16 19 22 23 23 22 20 18 17 18
39 40 41 41 42 42 43 43 43 43 42 41 40 40 42 43 44 44 43 43 43 42 41 39 38 37 37 38 40 42 44 44 46 48 48 48 49 48 48 49 49 50 50 49 48 47 45 44 43 42 42 41 40 40 40 39 36 31 29 28 24 22 21 21 20 20 18 13 10 9 8 7 7 6 9 11 11 12 13 16 20 21 22 22 22 20 18 18
42 43 44 44 44 44 44 44 44 44 45 44 44 42 42 44 46 48 47 47 46 45 44 43 41 40 40 40 41 43 44 45 47 49 49 50 50 50 50 51 51 51 51 50 49 48 47 45 43 43 44 43 42 41 41 41 38 33 30 29 26 23 21 21 19 19 19 14 10 9 8 6 4 3 7 8 8 9 10 13 17 19 19 21 23 22 20 19
45 46 46 46 47 47 47 46 46 46 45 46 47 46 46 46 48 50 51 51 49 49 48 46 45 43 43 42 43 44 44 45 48 50 50 51 52 51 52 52 52 52 52 51 50 49 48 46 45 44 45 45 44 43 42 43 40 35 31 29 28 24 21 20 19 18 18 16 12 10 9 10 9 6 7 6 4 6 8 10 13 16 17 19 21 22 21 20
47 48 48 48 49 49 49 49 49 48 48 48 49 50 50 49 49 51 53 54 53 52 51 50 49 47 46 45 45 45 44 46 49 51 51 52 53 53 53 53 53 53 53 53 52 51 49 48 46 46 47 47 46 44 43 43 42 37 32 30 29 26 22 20 20 20 18 17 15 12 13 14 12 9 7 5 3 4 6 8 10 13 15 17 19 21 22 21
48 49 50 51 52 52 52 52 51 51 51 51 52 53 53 53 52 52 54 56 57 56 54 53 52 51 49 48 48 46 46 48 50 51 53 53 53 54 55 55 54 54 55 54 53 51 50 48 48 48 48 48 47 46 44 44 43 39 33 31 30 28 24 22 23 23 19 18 18 15 13 14 12 10 8 6 4 3 4 6 8 10 13 15 17 20 21 21
49 50 52 53 54 54 54 54 54 55 55 55 56 56 56 56 55 55 55 57 58 59 58 56 55 54 52 51 50 48 47 49 50 52 54 54 54 55 56 56 55 56 56 55 54 52 50 50 50 50 50 49 48 47 46 45 44 40 35 32 32 29 25 23 24 24 20 19 21 16 12 17 16 13 10 7 6 5 4 4 6 8 11 13 15 18 20 21
50 52 55 56 56 57 57 58 58 58 59 59 59 59 59 58 58 57 57 58 59 60 61 60 58 57 56 54 51 49 50 51 52 54 55 56 56 57 58 57 56 57 57 56 54 52 52 52 51 51 50 50 50 48 47 46 45 42 36 34 34 30 26 24 25 25 22 21 23 18 13 17 16 13 11 10 9 7 5 3 4 6 8 11 13 15 19 20
53 56 58 59 59 60 60 61 62 62 62 62 62 62 61 61 60 59 59 59 60 61 62 63 62 60 59 57 54 52 53 54 55 56 56 57 57 58 59 58 58 59 59 57 55 52 52 52 53 52 51 51 51 49 49 48 47 43 38 36 35 31 27 26 26 26 25 23 23 22 17 15 15 14 13 12 11 9 6 4 3 4 6 9 11 13 17 19
56 59 61 62 62 63 63 64 64 64 64 64 64 63 63 62 61 60 60 60 61 62 63 64 64 63 62 60 57 56 57 56 56 57 57 58 58 59 59 59 60 60 60 58 56 54 53 54 54 53 53 53 52 51 51 50 49 45 40 37 37 33 28 25 25 25 26 25 23 23 20 15 16 16 15 14 13 10 7 4 3 3 4 7 8 11 15 18
60 63 64 65 65 65 66 66 66 66 66 65 65 63 62 61 60 59 59 60 61 62 64 65 65 66 65 63 61 60 59 58 57 57 57 58 58 59 60 60 60 61 60 58 57 55 56 56 56 56 56 55 54 53 53 52 50 47 43 40 40 37 30 25 23 24 25 25 24 23 19 16 18 18 16 17 15 11 8 5 3 2 3 4 6 8 12 16
63 66 66 67 67 68 68 68 68 68 67 65 64 62 60 59 58 57 57 59 61 63 64 66 67 67 68 66 64 62 60 58 57 56 57 58 58 59 60 61 61 61 60 59 57 56 57 57 57 58 58 57 56 55 55 54 52 49 45 43 42 39 35 30 26 26 26 26 27 24 20 19 19 18 17 18 17 13 11 7 5 3 1 2 4 6 9 13
66 68 68 69 69 70 70 71 70 69 67 65 62 59 57 54 53 54 55 57 60 62 64 67 68 68 69 68 66 64 61 59 58 57 57 58 59 60 60 62 62 62 61 60 59 58 58 58 58 59 59 58 58 57 58 58 53 50 48 45 44 42 38 35 31 29 29 29 29 26 23 22 20 19 19 21 18 15 13 10 7 4 2 1 2 4 7 11
68 69 70 71 72 72 72 73 72 71 68 64 60 56 52 49 48 49 52 55 58 62 65 67 69 70 69 69 68 66 63 62 60 59 59 60 61 61 62 63 63 63 62 61 60 60 60 60 60 60 60 59 60 61 61 59 52 49 50 47 45 45 41 36 32 30 30 30 29 27 26 24 22 20 22 23 20 17 15 11 8 6 5 3 2 3 5 8
71 71 72 73 74 74 74 74 73 71 68 63 57 52 47 44 43 45 48 53 57 61 65 68 70 71 71 70 70 68 67 66 64 62 61 62 63 63 63 64 64 63 63 62 62 62 62 62 61 61 63 63 64 63 60 59 54 51 52 50 47 48 44 36 32 30 31 32 30 28 28 27 24 22 22 23 20 17 15 11 9 8 7 5 3 2 3 6
73 73 74 75 76 76 75 76 75 72 68 61 53 47 43 40 39 40 43 49 55 61 65 68 71 73 73 72 71 70 70 69 67 65 64 64 64 64 64 65 64 64 64 64 64 64 64 64 63 64 66 66 64 62 60 61 58 54 54 53 49 49 46 38 33 32 33 35 32 29 29 29 27 24 24 24 22 19 14 12 11 9 7 6 4 2 2 4
74 75 76 77 77 77 77 77 76 72 66 56 48 42 38 36 35 36 39 44 52 59 65 69 71 74 75 74 73 72 72 70 70 69 66 64 64 65 65 65 64 64 64 65 66 66 65 66 67 67 67 65 64 63 62 63 61 57 57 56 52 50 49 42 36 34 33 35 34 31 31 32 29 26 25 23 22 20 15 13 13 11 9 7 5 4 1 3
76 76 78 79 79 79 79 78 76 71 61 51 43 38 34 32 31 32 35 40 47 55 63 69 72 74 76 76 75 74 74 73 72 72 69 66 66 66 66 65 65 65 65 66 68 67 67 68 69 68 67 66 65 64 65 66 63 60 60 59 55 52 51 44 38 36 35 36 38 35 35 35 32 28 27 25 24 22 18 16 15 12 11 8 6 5 2 2
77 78 79 81 81 81 81 79 75 66 55 46 39 33 29 28 28 28 31 36 42 50 59 68 73 75 77 78 78 76 76 75 74 74 72 69 67 67 67 66 66 66 66 68 69 70 71 72 70 68 68 68 68 67 66 67 66 63 62 62 59 56 53 47 40 38 38 40 41 40 38 37 33 30 29 29 27 23 20 19 17 14 13 10 7 6 4 1
78 80 81 82 82 82 82 79 71 60 49 41 36 29 25 24 24 25 28 32 38 45 54 65 72 76 78 79 79 78 77 76 75 75 74 71 69 69 68 68 68 67 68 69 71 73 74 73 71 70 70 69 69 68 68 68 68 66 64 64 62 59 57 52 45 40 39 41 43 41 39 36 33 31 30 30 28 25 23 23 20 17 14 11 8 7 6 4
79 81 83 84 84 83 82 76 66 53 43 37 32 27 22 20 21 22 25 29 35 41 48 59 69 76 78 80 81 80 79 78 77 76 76 74 71 69 69 69 69 69 69 70 71 73 74 73 72 72 71 71 71 70 69 69 69 68 67 66 65 63 60 56 49 44 40 40 42 40 38 36 34 33 31 30 29 28 26 24 22 18 16 14 11 8 8 6
81 83 84 85 85 84 80 72 60 48 38 32 28 25 21 18 18 20 22 26 31 37 43 52 63 72 78 81 82 82 81 80 79 77 77 76 72 70 69 69 70 70 69 70 72 73 74 73 73 73 73 72 72 71 70 70 71 70 69 69 67 65 62 57 51 46 42 40 40 38 36 36 34 33 32 30 30 29 27 25 23 20 18 17 15 12 10 8
82 85 86 86 85 83 77 66 54 43 35 28 24 23 20 17 15 17 20 24 28 33 40 47 56 68 76 81 83 83 83 82 81 79 78 78 75 71 70 69 70 70 70 70 71 73 74 75 74 74 74 73 72 73 71 72 73 72 71 71 69 66 63 59 53 49 45 42 40 39 37 35 34 34 34 33 31 30 29 27 24 22 20 19 17 14 13 11
84 86 87 86 86 82 72 60 48 39 32 25 21 20 19 17 14 15 17 21 26 31 37 44 52 62 72 79 83 84 84 83 82 80 79 79 77 74 71 70 70 71 71 71 72 74 75 75 75 75 75 74 74 75 74 74 74 74 72 72 71 67 65 64 59 53 49 46 43 40 39 37 34 33 35 34 33 31 30 28 25 23 21 21 21 18 15 13
86 87 87 87 85 79 67 54 43 36 29 23 19 17 17 16 14 13 15 19 24 28 34 40 47 56 67 77 83 85 85 84 82 81 80 81 80 76 73 71 71 71 71 71 72 75 76 75 75 75 75 76 76 77 76 76 75 75 74 73 73 70 68 68 65 58 52 49 46 42 42 39 32 32 35 35 35 34 32 29 25 23 23 23 24 21 18 16
87 88 88 87 83 74 61 48 39 33 26 21 18 16 14 13 13 13 13 17 21 26 32 38 44 51 62 73 81 85 86 84 83 82 81 81 81 78 75 72 71 70 71 72 73 74 75 74 74 75 76 78 78 77 77 76 76 75 75 75 75 73 71 70 68 63 56 51 48 46 45 40 34 36 40 36 37 38 35 31 28 27 26 26 26 25 21 18
88 89 88 86 80 69 56 44 36 30 24 19 16 15 13 11 11 12 13 15 18 24 30 36 42 48 57 68 77 83 86 85 84 84 83 82 81 80 77 74 72 71 71 72 72 73 73 71 72 75 78 79 79 78 77 76 75 75 75 76 77 75 72 71 70 68 62 54 51 49 48 46 43 44 43 38 39 40 37 34 32 32 31 30 28 26 24 21
89 89 88 85 77 64 52 41 33 27 22 17 14 13 12 10 9 10 12 13 16 21 27 33 40 47 55 64 73 81 84 85 85 85 84 83 82 81 79 76 74 73 72 72 73 73 71 70 72 76 79 80 80 79 77 76 75 76 75 76 78 77 74 72 71 72 68 60 54 51 50 51 49 46 43 40 40 40 39 36 35 35 34 33 30 27 26 25
89 89 87 83 72 60 49 39 31 25 21 16 12 11 10 9 9 9 10 11 14 19 24 30 37 45 53 61 70 78 83 84 85 85 85 84 83 83 81 78 76 74 73 74 75 73 71 71 73 76 79 80 80 80 78 76 76 76 76 77 80 79 77 75 74 75 73 66 59 54 51 50 49 47 44 43 41 41 40 38 38 38 35 33 30 27 27 27
90 89 86 80 68 57 47 37 30 24 20 16 12 10 9 8 8 7 7 9 13 16 21 27 33 40 49 58 68 76 81 83 85 85 85 85 84 83 83 80 77 75 74 74 76 74 71 71 73 75 78 80 81 81 80 79 79 79 80 81 83 83 82 81 79 78 77 73 64 57 54 52 51 50 47 44 43 43 41 40 40 37 35 35 32 29 28 27
90 89 85 76 64 54 46 36 29 23 18 15 12 10 8 7 7 6 6 7 10 14 18 24 30 37 44 53 64 73 79 82 84 85 85 85 84 84 83 81 79 77 75 75 75 74 71 71 74 76 78 80 82 83 82 82 82 82 82 83 84 85 85 85 83 80 78 75 68 61 57 56 55 53 50 47 46 46 44 43 40 35 33 35 35 32 30 28
89 88 84 73 60 52 45 35 28 22 17 14 12 10 8 7 7 6 6 6 8 11 16 20 26 33 41 49 58 68 76 81 83 85 86 85 85 84 83 82 81 78 77 76 75 73 72 73 75 76 77 80 83 84 84 83 82 83 82 81 84 87 88 87 85 81 78 76 73 67 61 58 56 56 55 52 50 49 48 45 41 35 33 36 37 35 33 31
89 87 81 70 58 51 44 35 28 21 17 14 12 10 9 9 8 7 6 6 7 9 12 17 23 29 37 45 53 63 73 79 82 85 86 86 85 84 84 83 82 80 78 77 76 74 73 73 74 76 77 80 82 84 85 84 84 83 82 83 86 89 89 88 86 83 79 77 77 74 67 59 56 57 58 56 53 51 50 48 44 38 36 38 38 35 34 34
89 86 79 67 56 50 43 35 28 21 17 14 12 11 10 10 10 8 8 7 7 7 9 13 19 25 32 40 49 58 68 75 81 84 86 86 85 85 84 84 83 81 80 79 78 75 74 75 75 76 77 79 81 84 85 84 83 83 83 86 88 89 89 89 87 84 82 79 79 79 74 64 59 59 60 58 56 53 52 51 48 43 39 40 39 37 36 36
89 85 77 65 54 49 42 34 27 22 17 14 12 12 12 12 11 10 9 8 8 8 8 10 14 21 27 35 44 53 63 71 78 83 85 86 86 85 85 85 84 83 82 80 79 77 76 76 76 76 77 79 81 83 84 83 84 84 85 86 86 87 89 90 89 87 85 83 81 82 80 72 65 62 60 60 58 55 54 53 51 46 43 42 43 41 38 37
88 84 76 63 53 48 41 33 27 22 17 14 12 12 13 14 13 11 11 10 10 9 9 10 12 16 22 30 38 47 57 66 74 80 84 86 87 87 87 86 86 85 84 83 80 79 78 77 77 77 78 78 79 81 82 84 85 86 86 84 83 85 87 89 89 88 87 85 84 83 83 81 75 68 63 61 60 59 56 55 54 50 47 46 46 44 40 39
88 83 74 61 53 48 42 34 27 21 17 14 12 13 14 16 15 13 12 12 12 12 12 12 12 14 18 25 32 41 50 60 69 76 81 85 87 88 88 88 87 87 86 85 83 81 80 79 78 78 77 77 78 80 83 85 87 87 86 85 85 86 87 88 89 88 87 87 86 85 85 84 82 77 70 64 62 61 59 57 56 54 51 49 47 45 43 41
87 82 72 60 53 49 42 34 28 21 17 14 12 12 14 16 17 15 14 14 15 15 15 15 15 15 17 21 27 35 43 52 62 71 78 83 86 88 89 89 89 88 88 87 85 83 82 80 79 78 77 78 78 80 83 85 86 87 87 86 87 87 88 88 89 89 90 89 89 88 86 85 84 82 79 73 65 63 62 60 57 56 53 50 47 47 45 40
87 80 70 59 52 48 43 35 29 22 17 14 12 11 13 16 18 18 17 17 17 18 18 18 18 18 19 20 24 30 37 46 55 65 73 80 85 88 89 90 90 89 89 88 87 85 83 82 81 79 79 79 79 81 83 84 85 86 87 87 87 87 87 88 89 91 92 92 91 91 89 86 85 84 83 80 72 65 63 63 61 58 55 52 49 48 46 40
86 79 68 57 52 48 43 36 29 23 18 14 13 11 13 16 18 19 19 19 19 19 20 20 20 20 21 22 24 27 33 41 49 58 67 76 82 86 89 90 90 90 90 89 88 87 85 84 83 81 80 80 81 82 83 83 83 84 86 86 86 86 87 88 89 91 92 92 91 91 90 88 87 85 83 82 79 71 65 66 67 62 58 54 51 50 49 44
85 77 66 56 51 49 43 36 30 24 19 16 13 11 12 15 18 19 20 20 20 20 21 21 21 22 23 25 26 28 31 37 44 53 61 70 78 84 88 90 91 91 91 90 89 89 88 86 85 83 81 80 80 80 80 81 81 82 84 86 87 87 87 88 89 90 90 91 91 92 92 91 89 88 85 82 82 78 70 68 70 68 62 58 54 52 53 51
84 76 65 55 51 49 43 36 31 25 21 17 14 11 11 14 17 18 20 21 21 21 21 21 22 22 23 25 28 30 32 36 41 48 56 64 72 79 85 88 90 91 91 91 91 90 90 88 87 85 83 81 80 80 80 80 81 82 83 86 87 88 88 89 90 90 90 91 91 92 93 93 92 91 89 85 84 83 78 72 70 71 67 62 58 55 55 55
83 75 64 54 51 49 43 36 30 26 21 18 15 12 10 13 16 17 19 20 21 21 21 21 22 22 22 25 28 31 33 36 40 45 51 58 66 73 80 85 89 91 92 92 92 91 91 90 88 86 84 83 82 81 81 81 82 82 84 85 87 88 89 89 89 90 91 92 92 92 94 95 95 94 93 90 87 86 84 78 73 73 72 68 63 59 56 57
82 74 63 54 51 49 44 36 30 25 22 18 15 12 11 12 15 16 18 19 20 20 20 20 20 20 21 23 27 31 34 37 39 43 48 54 61 67 74 81 86 89 91 92 92 92 92 91 90 88 86 85 83 82 81 82 82 83 84 85 87 88 89 90 90 91 92 92 92 93 94 95 97 97 95 93 91 88 87 84 78 75 74 73 69 65 61 59
81 73 62 54 52 49 43 36 29 25 21 18 15 13 12 12 14 15 16 17 18 19 19 18 18 19 19 20 24 29 34 38 40 43 46 50 56 63 69 75 81 86 89 91 92 92 92 92 91 89 88 86 84 83 82 82 83 83 84 84 86 88 89 90 91 92 92 93 93 93 93 94 97 98 97 95 93 91 90 89 85 80 76 75 73 71 68 64
81 72 61 54 53 50 43 35 29 24 20 17 15 14 12 12 13 14 15 16 16 17 17 16 16 17 17 17 20 26 32 38 42 44 46 49 53 58 64 70 76 81 86 89 90 91 92 92 91 90 89 88 86 84 83 83 83 83 84 84 85 87 89 90 91 92 93 93 94 94 94 93 95 97 98 97 95 94 93 93 91 87 82 77 75 74 74 71
81 72 62 54 53 50 42 34 28 23 20 17 15 13 12 12 12 13 13 15 15 15 14 14 14 15 15 15 17 22 29 36 42 46 48 49 51 55 60 65 70 76 81 85 88 90 91 92 91 91 90 89 88 87 85 84 84 84 85 85 85 86 88 90 91 93 94 94 95 95 94 94 94 95 97 98 98 96 96 95 95 93 89 84 79 77 77 77
81 73 62 56 54 50 41 33 28 24 20 17 14 13 11 12 12 12 13 14 14 13 13 13 13 14 14 13 13 17 24 32 39 46 50 51 52 54 58 62 66 71 77 81 85 87 90 91 91 91 91 91 89 89 88 86 85 86 86 86 86 86 87 89 91 92 94 94 94 95 95 96 96 95 96 98 99 99 98 97 97 96 94 91 87 82 79 79
Wind_Direction
316 314 313 312 310 308 306 303 302 299 297 293 289 286 284 284 282 278 273 267 258 250 243 239 237 235 233 230 229 228 227 224 221 218 217 216 215 215 215 216 214 213 213 211 212 211 208 205 202 201 200 198 190 187 188 187 186 185 191 196 189 190 192 178 164 157 149 171 169 79 88 90 76 70 65 62 57 54 50 51 55 53 54 55 57 58 57 57
313 311 309 307 305 303 302 300 298 295 293 291 288 285 281 278 277 276 274 269 263 255 247 240 236 235 233 230 228 227 227 225 221 218 218 217 215 214 215 215 214 213 212 210 211 211 208 206 203 200 200 198 192 187 188 187 185 184 192 197 188 191 197 180 163 158 152 157 156 56 124 101 83 77 69 63 57 56 52 50 54 54 54 54 54 55 55 55
313 311 308 305 303 301 299 298 296 293 291 288 285 283 279 275 272 271 270 268 265 259 252 244 237 233 232 231 228 226 226 225 222 220 218 216 215 214 215 214 213 213 212 210 210 210 209 206 202 200 200 199 194 189 188 186 186 186 192 196 188 192 198 181 168 164 161 157 159 161 139 106 89 86 76 69 59 57 55 51 53 54 54 55 54 53 52 52
316 314 312 310 307 304 301 298 296 293 290 287 283 280 277 273 269 266 265 264 263 260 255 248 241 235 231 230 229 226 225 224 222 221 219 216 215 214 214 214 213 213 212 209 210 210 209 206 202 199 199 199 196 191 189 187 189 188 191 196 191 196 198 185 176 173 174 169 164 166 143 107 94 92 81 74 63 58 57 53 53 53 52 55 56 53 52 51
319 318 316 313 311 308 305 302 298 294 290 286 282 279 276 272 268 264 261 260 259 258 255 250 244 238 232 229 228 226 224 223 222 221 219 217 216 214 214 214 212 213 211 209 209 209 208 206 202 199 199 199 196 193 190 189 192 190 191 194 192 198 198 190 185 177 175 176 167 167 152 114 99 94 85 77 67 60 57 56 55 53 51 53 57 54 52 52
319 318 316 313 310 307 305 302 299 295 291 286 281 277 274 271 268 264 260 257 256 255 254 251 246 241 235 229 227 226 224 222 221 221 219 218 216 214 214 213 211 212 211 209 208 208 207 205 202 200 199 198 197 194 191 192 193 191 191 192 192 199 197 195 194 180 174 176 173 178 174 137 109 95 90 81 71 61 54 58 59 56 50 50 56 55 53 53
319 317 314 311 308 306 304 301 298 295 290 286 281 276 272 269 267 264 261 258 254 253 252 250 247 243 237 231 227 225 223 221 220 220 219 218 217 215 214 213 211 212 211 208 206 207 207 205 202 200 199 198 197 195 192 193 194 191 191 192 194 197 197 199 200 185 175 172 178 192 191 177 175 140 106 89 75 65 56 59 61 59 52 48 54 55 53 53
317 315 313 312 310 308 305 302 298 294 289 285 281 277 272 268 265 263 261 259 255 252 250 249 247 244 239 234 229 224 221 221 220 219 218 218 217 215 215 213 210 211 211 208 206 206 206 204 203 201 199 198 197 196 193 194 195 192 192 193 193 193 198 203 200 191 180 169 178 203 214 210 205 182 133 106 79 71 64 59 61 62 55 47 50 55 54 52
317 316 315 313 312 309 306 302 298 294 289 284 280 277 274 270 266 263 260 259 256 252 249 248 246 243 240 236 231 225 221 220 220 218 217 217 217 216 215 214 210 210 211 208 205 204 204 204 203 201 200 199 198 196 193 195 196 193 193 194 191 192 200 203 196 192 185 173 178 200 221 218 201 181 155 135 113 82 75 65 60 60 57 48 47 53 55 52
318 317 316 314 311 308 305 301 298 294 289 284 280 277 274 271 267 264 260 258 256 253 249 247 245 243 240 237 233 226 221 220 219 218 216 216 217 216 215 214 211 209 210 208 205 203 203 204 204 201 200 199 198 195 193 195 196 193 193 192 191 194 200 200 195 191 185 180 179 184 210 222 212 192 172 162 166 130 99 78 63 59 57 50 45 49 54 53
318 317 316 313 311 308 305 301 298 294 290 286 282 278 275 272 269 265 261 258 255 253 250 246 244 242 240 237 235 229 223 221 219 218 216 215 215 215 215 214 212 210 209 208 205 203 203 204 204 202 200 199 198 195 193 195 195 193 191 191 192 196 203 202 199 193 183 181 175 171 201 218 212 196 184 183 188 166 129 92 68 60 55 51 44 45 52 53
318 317 316 314 311 309 306 303 299 295 291 287 284 280 277 273 270 266 262 258 254 252 249 246 243 241 239 237 235 231 227 222 218 217 216 215 214 214 215 214 212 211 209 207 204 203 203 203 204 202 201 199 198 196 193 194 195 193 191 192 192 195 202 201 201 196 185 180 174 170 196 211 204 195 194 195 192 177 151 121 79 64 55 51 43 43 49 51
318 318 317 315 313 310 307 304 301 297 293 289 286 282 278 275 270 266 261 257 253 250 247 245 242 239 237 236 233 231 229 223 218 216 216 214 213 213 214 213 212 211 208 205 203 204 205 203 203 203 201 199 198 196 193 193 193 192 192 192 192 193 197 197 199 198 190 184 179 175 182 201 210 209 208 204 193 178 161 147 108 73 57 52 42 40 46 49
319 319 318 316 313 311 308 305 302 299 295 292 288 284 280 276 271 266 261 256 251 247 245 243 241 238 236 234 231 230 229 225 219 216 215 214 213 212 213 212 212 211 208 205 202 203 204 203 202 203 202 200 198 195 194 192 191 191 190 190 192 192 191 192 198 201 194 188 186 179 177 192 211 212 212 207 195 181 171 166 145 93 60 54 42 37 45 48
320 320 319 316 314 313 310 307 304 301 298 294 291 287 282 277 271 265 259 253 248 245 242 240 239 236 234 232 230 228 228 226 221 217 215 215 214 212 212 212 212 212 209 206 203 203 204 203 201 202 203 200 197 195 194 191 190 191 189 188 192 191 188 187 193 200 198 193 189 181 178 194 207 209 212 207 196 185 178 180 181 142 64 45 36 33 43 48
322 321 319 318 316 315 312 310 307 304 301 298 294 290 284 278 270 263 256 250 245 241 238 237 236 234 232 231 229 227 226 226 224 219 215 214 214 213 211 211 212 212 210 207 204 202 204 203 201 201 203 200 196 195 194 190 189 191 189 188 190 189 188 188 187 194 198 197 192 182 182 195 201 207 214 211 201 189 181 187 200 186 120 19 19 27 40 47
323 322 321 320 318 317 314 312 310 307 305 302 298 293 286 278 269 260 252 246 241 237 234 232 232 232 231 229 228 226 224 225 224 221 216 214 214 213 211 211 211 211 210 208 205 203 204 203 202 202 203 201 197 195 195 191 187 190 190 190 191 189 191 192 190 193 198 199 194 183 183 190 194 206 218 218 208 192 184 187 198 201 186 244 337 14 36 46
324 324 323 321 320 318 316 314 313 311 309 306 302 296 288 278 268 257 248 241 236 233 231 229 228 229 229 228 227 226 223 222 222 221 217 214 213 212 211 210 210 210 209 209 206 203 203 203 203 202 202 203 199 196 196 191 185 188 192 192 192 192 192 192 194 197 201 202 196 186 183 184 190 205 217 220 213 196 188 187 193 204 192 200 277 351 31 43
326 325 324 323 322 320 319 318 317 315 314 311 306 299 290 279 268 256 245 237 232 228 227 225 225 225 225 225 224 224 222 220 219 219 218 215 212 211 210 210 209 209 209 209 207 204 202 203 203 202 202 203 201 197 195 191 186 187 193 193 191 193 192 189 190 197 204 204 197 192 190 186 189 203 215 220 219 206 195 189 191 205 202 196 236 304 19 41
328 326 325 325 324 323 322 321 320 319 317 314 308 301 292 281 269 257 245 235 229 225 223 222 221 221 222 222 222 222 221 219 217 217 217 215 212 211 210 209 208 208 208 208 207 204 202 203 203 203 203 202 201 197 194 192 188 187 192 193 191 192 191 187 185 191 201 202 196 196 198 192 189 200 212 217 220 213 200 191 190 202 208 198 213 251 356 39
328 327 327 326 326 325 325 324 323 322 320 316 310 302 293 282 270 257 245 235 227 222 220 219 219 218 218 219 220 220 220 219 217 216 216 214 212 210 209 209 208 208 207 207 207 205 203 204 205 204 202 201 200 198 195 193 191 190 191 192 191 191 191 188 186 188 196 198 194 195 201 197 192 198 204 209 216 213 200 194 191 195 207 203 209 230 298 32
329 329 329 328 328 327 327 327 326 324 321 317 311 303 293 281 270 257 245 235 227 221 218 216 216 216 216 216 217 218 218 218 217 215 215 213 212 210 208 208 208 207 207 206 206 205 204 206 206 204 201 200 200 199 197 195 194 193 192 192 192 191 192 190 188 193 196 196 195 197 202 200 195 197 198 200 210 211 202 200 194 193 203 202 206 221 244 8
330 330 330 330 330 330 329 329 328 326 322 317 311 304 293 281 269 256 244 234 227 221 216 214 213 213 213 214 215 216 216 217 216 214 214 212 211 210 208 207 207 207 206 205 205 205 206 206 205 203 201 200 199 199 199 197 196 195 193 193 193 192 192 188 186 192 195 194 197 201 205 202 197 199 199 198 204 207 205 205 199 196 203 201 199 213 225 247
331 332 332 332 332 332 331 330 329 326 322 317 312 305 295 281 269 256 244 234 227 221 216 213 212 211 211 212 213 214 214 215 215 214 213 212 211 209 207 206 206 206 206 205 205 206 206 205 203 202 202 200 199 200 200 198 197 196 195 194 193 192 192 188 184 186 189 192 197 203 207 204 198 200 202 200 201 202 204 207 204 199 203 207 206 213 221 223
333 333 334 334 333 333 333 331 329 327 323 317 312 307 298 283 269 257 244 234 227 222 217 213 211 210 210 210 211 212 213 213 214 213 212 212 211 209 208 206 205 206 206 206 206 207 206 204 203 202 203 201 199 200 201 200 197 197 196 196 195 193 193 190 185 184 186 190 196 200 205 207 203 202 204 204 202 202 204 208 208 202 200 207 210 216 222 221
334 335 335 335 335 335 334 332 330 326 322 317 312 309 301 287 272 258 245 235 227 221 218 214 211 209 209 209 209 210 211 212 212 212 211 211 210 209 208 207 205 205 206 206 206 206 206 204 203 203 203 202 200 200 201 200 199 197 196 197 197 195 193 191 187 185 187 189 193 197 202 208 207 205 204 205 205 206 207 209 210 205 200 203 205 211 220 219
336 337 337 336 336 336 334 332 329 326 322 317 313 309 302 291 276 259 245 235 227 221 217 214 211 209 208 208 208 209 210 210 211 211 210 210 209 209 208 207 206 205 206 207 206 206 206 205 204 203 203 203 201 201 201 201 200 198 196 197 199 196 194 192 189 187 187 188 190 192 197 204 208 207 206 205 206 208 209 209 210 206 203 207 207 209 216 218
337 338 338 337 337 336 335 332 329 325 322 317 313 309 302 293 279 260 245 234 227 221 217 214 211 208 207 207 207 208 209 209 210 210 209 209 209 208 208 207 207 206 206 206 206 206 206 205 204 203 203 203 203 202 201 201 200 198 196 197 199 197 194 194 191 187 186 187 187 188 195 200 202 206 207 204 203 205 209 209 206 203 206 213 214 211 213 216
339 339 339 339 338 337 336 333 329 325 321 317 314 307 298 291 280 260 244 233 225 220 216 213 211 208 206 206 206 207 208 208 209 209 209 208 208 208 207 207 207 206 206 207 207 207 206 204 204 203 203 205 204 203 202 201 201 198 196 196 199 198 195 195 193 189 186 187 186 187 193 193 190 199 206 204 201 202 205 204 201 204 212 218 218 215 213 215
340 340 340 340 339 337 336 333 328 324 320 317 313 305 296 286 275 261 244 231 223 218 215 212 209 208 206 206 205 206 206 207 207 208 208 208 208 207 207 207 207 206 206 207 207 208 206 205 204 204 205 206 206 204 203 202 201 199 196 196 198 199 196 196 195 192 189 187 187 187 189 183 180 195 205 204 203 202 202 199 198 205 213 219 221 219 215 215
341 341 341 340 339 338 337 333 328 323 319 316 310 304 300 289 272 260 246 233 222 217 215 211 208 206 206 205 205 205 205 206 206 207 207 208 208 208 207 206 206 206 206 206 207 208 206 205 205 206 207 208 207 205 204 202 201 200 198 197 199 200 198 197 197 195 192 189 188 187 187 182 184 195 202 203 206 206 203 200 201 205 210 217 221 221 217 216
341 342 342 341 340 339 337 334 328 323 317 314 306 298 299 295 274 256 246 237 224 216 215 212 208 206 204 204 205 205 205 205 205 206 207 207 207 207 207 207 206 206 206 205 206 207 206 205 205 207 208 208 208 206 204 203 202 200 199 198 199 201 199 198 199 198 195 192 189 188 188 188 189 194 199 202 206 206 203 202 205 208 210 216 220 219 215 214
342 343 343 342 340 339 338 335 329 322 316 312 303 291 293 292 274 252 243 239 227 217 213 211 209 207 204 203 203 204 205 205 205 206 206 207 206 206 207 207 207 207 206 205 205 205 205 205 206 207 208 208 208 207 205 203 202 200 200 199 199 201 200 199 201 200 198 195 192 189 190 191 191 192 197 201 201 202 201 202 207 210 212 215 218 218 216 213
343 344 344 343 341 340 339 336 330 322 315 310 299 286 286 284 270 247 235 236 230 221 214 211 209 208 206 204 203 203 204 205 205 205 206 207 207 207 206 207 207 207 207 206 206 205 204 205 207 207 207 208 209 208 206 204 202 200 200 199 199 200 200 200 201 202 200 197 193 191 191 193 193 193 195 196 195 197 199 201 207 212 215 217 216 217 216 214
344 344 345 343 341 341 340 337 331 323 314 308 295 282 277 274 264 242 223 227 228 221 216 212 208 207 207 206 205 204 203 204 205 205 206 207 207 207 207 207 207 207 207 207 207 205 204 206 207 206 206 207 209 209 207 206 203 202 201 200 199 200 201 201 202 202 201 199 196 194 194 195 196 196 197 195 193 195 199 202 205 208 214 219 218 216 216 216
345 345 345 344 342 341 341 338 333 324 314 305 292 278 268 262 256 237 213 212 221 220 215 212 210 207 206 206 206 205 204 204 204 205 206 206 207 207 207 207 207 207 207 207 207 206 205 207 207 206 206 207 208 209 208 207 205 203 202 201 201 201 202 203 203 202 202 201 199 198 197 197 197 199 201 200 196 196 199 202 202 201 208 218 221 219 218 217
346 346 345 344 343 342 341 339 334 325 313 302 288 273 259 251 244 233 216 201 202 214 215 211 210 209 207 206 206 206 206 205 205 205 206 206 207 207 207 208 208 208 208 208 208 206 206 207 208 207 207 208 208 209 209 208 206 204 202 202 202 202 203 204 204 203 202 202 202 201 200 196 195 199 202 203 202 199 200 203 201 198 205 217 221 221 220 219
346 346 346 344 343 343 342 339 335 326 312 299 285 266 250 243 237 228 221 207 193 197 209 210 210 209 208 208 207 206 206 206 206 206 206 206 207 207 208 208 208 209 209 209 209 207 207 208 208 208 208 208 208 209 209 209 208 206 204 204 203 203 203 204 204 203 202 203 204 204 203 198 195 197 200 203 205 204 205 205 203 199 204 214 218 219 220 219
347 347 346 344 343 343 342 340 336 327 313 299 284 263 245 238 234 226 223 218 204 198 201 206 210 210 209 209 208 208 207 207 207 207 206 207 207 207 208 208 208 208 209 210 209 209 209 209 208 208 209 208 208 208 209 209 209 207 206 206 205 204 205 205 205 204 203 203 205 207 206 202 199 198 198 202 206 206 206 207 206 201 203 210 214 215 217 218
347 347 346 344 343 343 343 340 337 330 315 299 283 265 247 237 232 227 226 224 218 213 211 209 210 211 211 210 209 210 209 208 208 208 208 208 207 208 208 208 208 208 209 210 210 210 210 210 209 209 209 209 208 208 209 210 210 209 208 207 206 205 207 207 206 206 205 204 205 207 208 206 204 203 201 201 204 207 206 207 208 204 204 210 213 214 217 219
347 347 346 344 343 343 343 341 338 331 318 301 282 264 250 239 231 226 226 228 226 222 221 221 218 215 214 212 211 211 210 210 209 209 209 209 209 209 209 209 209 209 209 210 210 211 211 211 211 210 209 208 208 208 209 210 211 211 209 207 206 206 208 208 208 207 207 206 206 208 210 209 208 208 207 205 204 206 207 208 209 208 207 212 215 216 218 220
347 347 346 344 343 343 343 340 337 331 319 303 285 264 249 243 236 228 224 228 230 228 226 226 227 224 220 217 214 212 211 211 211 210 210 210 210 210 210 210 210 209 210 210 211 211 212 212 212 212 210 209 208 209 210 210 211 211 210 208 207 207 208 208 208 208 208 208 208 208 210 210 211 211 211 210 207 206 207 208 209 209 209 212 214 215 216 218
347 347 345 343 343 343 342 340 336 329 318 304 288 267 249 244 240 234 227 225 227 229 229 227 228 229 227 224 219 215 213 212 212 212 211 211 211 211 211 211 211 211 210 211 211 211 212 212 213 213 211 210 209 209 210 210 211 212 211 210 209 209 209 209 209 209 209 208 209 209 209 210 211 212 213 213 210 207 206 208 209 208 208 210 212 214 214 214
347 346 345 342 342 342 342 340 336 328 316 301 287 269 250 242 241 237 233 228 226 229 231 231 231 231 232 230 225 220 217 215 213 213 212 212 212 212 212 212 212 212 212 211 211 212 212 213 213 213 213 211 210 210 210 210 211 212 212 211 210 210 210 210 210 211 210 210 210 210 211 210 210 211 212 213 212 209 206 208 210 209 208 207 208 212 214 210
346 346 344 342 341 342 341 339 336 328 315 302 287 271 252 243 241 239 236 232 230 231 233 235 235 234 234 234 230 225 221 218 216 214 213 213 213 213 213 212 212 213 213 213 212 212 213 213 214 214 213 213 212 211 211 211 211 212 213 213 212 211 211 211 212 212 212 212 211 211 212 212 211 212 212 212 212 212 209 208 210 211 209 206 206 209 214 212
346 345 343 341 341 341 340 338 335 328 317 304 290 274 253 243 242 241 240 237 234 235 237 239 240 239 237 235 233 230 225 221 218 216 215 214 214 214 214 213 213 213 213 214 213 213 213 214 214 214 214 214 213 212 211 211 212 212 213 213 213 212 212 212 212 212 212 213 213 213 213 213 213 213 214 212 212 213 211 209 210 212 211 207 206 207 209 211
345 344 342 340 340 340 339 337 335 328 318 307 294 279 256 243 241 240 241 239 237 238 241 244 246 244 240 236 233 231 228 224 221 218 216 215 215 215 215 214 214 214 214 214 214 214 214 214 215 215 214 214 214 213 212 211 211 212 213 214 214 213 213 213 213 213 213 213 213 214 214 215 215 215 216 214 212 212 213 212 210 211 212 210 207 206 205 207
345 344 341 339 339 340 337 335 334 329 319 308 296 283 260 244 238 235 236 238 237 238 241 246 250 250 245 239 232 229 227 225 222 220 218 216 215 215 215 215 215 215 215 215 215 215 216 215 215 215 215 215 215 214 213 212 212 213 213 214 214 214 214 214 214 214 214 214 214 214 215 216 216 216 218 218 215 213 214 214 212 211 212 211 209 207 206 206
344 343 341 338 339 339 336 332 332 328 320 307 294 281 263 247 237 230 229 233 236 239 242 248 255 257 252 245 235 228 225 223 221 219 218 217 216 215 215 215 216 216 216 216 216 216 217 216 216 216 216 216 216 215 215 214 214 213 214 214 215 215 215 214 214 215 215 215 215 215 216 217 217 217 218 220 219 217 215 216 215 213 212 212 211 208 208 209
344 342 340 338 338 338 335 330 328 326 318 305 291 279 265 251 240 229 225 228 232 238 245 252 261 264 261 254 242 230 223 221 219 218 217 216 216 216 215 216 216 216 216 216 217 217 217 217 217 217 217 217 216 216 216 216 215 214 215 215 215 215 215 215 215 215 216 216 216 216 217 218 218 218 219 220 221 221 219 218 218 216 214 213 213 210 209 211
343 342 340 338 338 337 333 327 324 322 315 302 290 280 268 256 244 231 223 225 229 236 247 257 266 272 270 265 252 235 224 219 217 217 216 215 215 215 215 215 216 216 216 217 217 217 218 218 218 218 218 218 218 217 217 217 216 216 216 215 216 216 216 216 216 216 216 217 217 217 218 218 219 219 220 220 221 222 222 221 220 219 217 216 216 214 212 213
342 341 339 338 337 336 332 325 320 318 312 301 289 279 267 256 246 234 224 223 227 235 248 263 273 278 279 277 263 243 228 220 216 215 216 215 214 213 213 214 215 215 216 216 217 217 218 218 218 218 219 219 219 219 218 218 218 217 217 216 216 217 217 217 217 217 217 218 218 218 219 219 220 220 220 221 222 222 223 222 222 222 221 220 219 219 216 215